Weather History for Mosby, MO

Change the Weather History Date:

Sunday, April 28, 2013

  Actual Average (KMKC) Record (KMKC)
Temperature  
Mean Temperature 55 °F -  
Max Temperature 71 °F 67 °F 82 °F (2001)
Min Temperature 39 °F 49 °F 39 °F (2013)
Degree Days  
Heating Degree Days 10    
Growing Degree Days 5 (Base 50)    
Moisture  
Dew Point 48 °F    
Average Humidity 79    
Maximum Humidity 100    
Minimum Humidity 46    
Precipitation  
Precipitation 0.00 in - - ()
Sea Level Pressure  
Sea Level Pressure 29.92 in    
Wind  
Wind Speed 3 mph (SSE)    
Max Wind Speed 13 mph    
Max Gust Speed 16 mph    
Visibility 6 miles    
Events Fog    
Averages and records for this station are not official NWS values.
T = Trace of Precipitation, MM = Missing Value Source: NWS Daily Summary

Daily Weather History Graph

Daily Weather History Graph

Search for Another Location

Airport:

Trip Planner

Search our weather history database for the weather conditions in past years. The results will help you decide how hot, cold, wet, or windy it might be!

Date:

Astronomy

Apr. 28, 2013 Rise Set
Actual Time 6:21 AM CDT 8:07 PM CDT
Civil Twilight 5:53 AM CDT 8:36 PM CDT
Nautical Twilight 5:18 AM CDT 9:11 PM CDT
Astronomical Twilight 4:41 AM CDT 9:49 PM CDT
Moon 11:38 PM CDT (4/28) 8:40 AM CDT (4/28)
Length of Visible Light 14h 43m
Length of Day
13h 46m
Waning Gibbous, 88% of the Moon is Illuminated
Apr 28
Waning Gibbous
May 2
Last Quarter
May 9
New
May 17
First Quarter
May 24
Full

Hourly Weather History & Observations

Time (CDT) Temp. Windchill Dew Point Humidity Pressure Visibility Wind Dir Wind Speed Gust Speed Precip Events Conditions
12:15 AM 44.6 °F - 44.6 °F 100% 30.01 in 0.2 mi Calm Calm - N/A Fog Fog
12:35 AM 42.8 °F - 42.8 °F 100% 30.01 in 0.2 mi Calm Calm - N/A Fog Fog
12:55 AM 42.8 °F - 42.8 °F 100% 30.01 in 0.2 mi Calm Calm - N/A Fog Fog
1:15 AM 42.8 °F - 42.8 °F 100% 30.00 in 0.2 mi Calm Calm - N/A Fog Fog
1:35 AM 42.8 °F - 42.8 °F 100% 30.00 in 0.2 mi Calm Calm - N/A Fog Fog
1:55 AM 41.0 °F - 41.0 °F 100% 29.99 in 0.2 mi Calm Calm - N/A Fog Fog
2:15 AM 41.0 °F - 41.0 °F 100% 29.99 in 0.2 mi Calm Calm - N/A Fog Fog
2:35 AM 41.0 °F - 41.0 °F 100% 29.99 in 0.2 mi Calm Calm - N/A Fog Fog
2:55 AM 41.0 °F - 41.0 °F 100% 29.98 in 0.2 mi Calm Calm - N/A Fog Fog
3:15 AM 41.0 °F - 41.0 °F 100% 29.99 in 0.2 mi Calm Calm - N/A Fog Fog
3:35 AM 41.0 °F - 41.0 °F 100% 29.98 in 0.2 mi Calm Calm - N/A Fog Fog
3:55 AM 41.0 °F - 41.0 °F 100% 29.97 in 0.2 mi Calm Calm - N/A Fog Fog
4:15 AM 41.0 °F - 41.0 °F 100% 29.97 in 0.2 mi Calm Calm - N/A Fog Fog
4:35 AM 41.0 °F - 41.0 °F 100% 29.97 in 0.2 mi Calm Calm - N/A Fog Fog
4:55 AM 41.0 °F - 41.0 °F 100% 29.99 in 0.2 mi Calm Calm - N/A Fog Fog
5:15 AM 41.0 °F - 41.0 °F 100% 29.99 in 0.2 mi Calm Calm - N/A Fog Fog
5:35 AM 41.0 °F - 41.0 °F 100% 29.99 in 0.2 mi Calm Calm - N/A Fog Fog
5:55 AM 41.0 °F - 41.0 °F 100% 29.99 in 0.2 mi Calm Calm - N/A Fog Fog
6:15 AM 39.2 °F - 39.2 °F 100% 29.98 in 0.2 mi Calm Calm - N/A Fog Fog
6:35 AM 39.2 °F - 39.2 °F 100% 29.99 in 0.2 mi Calm Calm - N/A Fog Fog
6:55 AM 39.2 °F - 39.2 °F 100% 29.99 in 0.2 mi Calm Calm - N/A Fog Fog
7:15 AM 39.2 °F - 39.2 °F 100% 29.99 in 0.2 mi Calm Calm - N/A Fog Fog
7:35 AM 39.2 °F - 39.2 °F 100% 29.99 in 0.2 mi Calm Calm - N/A Fog Fog
7:55 AM 39.2 °F - 39.2 °F 100% 30.00 in 0.2 mi Calm Calm - N/A Fog Fog
8:15 AM 41.0 °F - 41.0 °F 100% 30.00 in 0.2 mi Calm Calm - N/A Fog Fog
8:35 AM 42.8 °F - 42.8 °F 100% 29.99 in 0.2 mi Calm Calm - N/A Fog Fog
8:55 AM 42.8 °F - 42.8 °F 100% 29.99 in 0.2 mi Calm Calm - N/A Fog Fog
9:15 AM 44.6 °F - 44.6 °F 100% 29.99 in 0.8 mi Calm Calm - N/A   Overcast
9:35 AM 46.4 °F 45.2 °F 46.4 °F 100% 29.98 in 0.8 mi ESE 3.5 mph - N/A   Overcast
9:55 AM 50.0 °F - 50.0 °F 100% 29.98 in 5.0 mi East 3.5 mph - N/A   Mostly Cloudy
10:15 AM 51.8 °F - 51.8 °F 100% 29.98 in 10.0 mi SE 3.5 mph - N/A   Scattered Clouds
10:35 AM 53.6 °F - 53.6 °F 100% 29.97 in 10.0 mi SSE 4.6 mph - N/A   Clear
10:55 AM 53.6 °F - 53.6 °F 100% 29.97 in 10.0 mi South 4.6 mph - N/A   Clear
11:15 AM 55.4 °F - 55.4 °F 100% 29.97 in 10.0 mi SSE 6.9 mph - N/A   Clear
11:35 AM 57.2 °F - 55.4 °F 94% 29.97 in 10.0 mi South 6.9 mph - N/A   Clear
11:55 AM 60.8 °F - 53.6 °F 77% 29.96 in 10.0 mi WSW 6.9 mph - N/A   Scattered Clouds
12:15 PM 62.6 °F - 51.8 °F 68% 29.95 in 10.0 mi South 6.9 mph - N/A   Scattered Clouds
12:35 PM 62.6 °F - 51.8 °F 68% 29.95 in 10.0 mi WSW 6.9 mph - N/A   Clear
12:55 PM 64.4 °F - 51.8 °F 64% 29.94 in 10.0 mi South 9.2 mph - N/A   Clear
1:15 PM 64.4 °F - 51.8 °F 64% 29.93 in 10.0 mi SSW 9.2 mph - N/A   Clear
1:35 PM 66.2 °F - 51.8 °F 60% 29.92 in 10.0 mi South 5.8 mph - N/A   Clear
1:55 PM 68.0 °F - 51.8 °F 56% 29.92 in 10.0 mi SW 8.1 mph - N/A   Clear
2:15 PM 68.0 °F - 50.0 °F 52% 29.91 in 10.0 mi SSW 6.9 mph - N/A   Clear
2:35 PM 68.0 °F - 51.8 °F 56% 29.90 in 10.0 mi South 8.1 mph - N/A   Clear
2:55 PM 69.8 °F - 51.8 °F 53% 29.89 in 10.0 mi South 9.2 mph - N/A   Clear
3:15 PM 69.8 °F - 51.8 °F 53% 29.88 in 10.0 mi South 9.2 mph - N/A   Clear
3:35 PM 69.8 °F - 50.0 °F 49% 29.87 in 10.0 mi SSE 12.7 mph - N/A   Clear
3:55 PM 71.6 °F - 50.0 °F 46% 29.85 in 10.0 mi SSE 9.2 mph - N/A   Clear
4:15 PM 71.6 °F - 51.8 °F 50% 29.84 in 10.0 mi SSE 11.5 mph - N/A   Clear
4:35 PM 71.6 °F - 50.0 °F 46% 29.83 in 10.0 mi South 10.4 mph - N/A   Clear
4:55 PM 71.6 °F - 50.0 °F 46% 29.82 in 10.0 mi SSE 10.4 mph - N/A   Clear
5:15 PM 71.6 °F - 50.0 °F 46% 29.82 in 10.0 mi South 9.2 mph - N/A   Clear
5:35 PM 71.6 °F - 50.0 °F 46% 29.81 in 10.0 mi South 10.4 mph 16.1 mph N/A   Clear
5:55 PM 71.6 °F - 50.0 °F 46% 29.81 in 10.0 mi South 11.5 mph - N/A   Clear
6:15 PM 71.6 °F - 50.0 °F 46% 29.80 in 10.0 mi SSE 8.1 mph - N/A   Clear
6:35 PM 71.6 °F - 51.8 °F 50% 29.80 in 10.0 mi SSE 8.1 mph - N/A   Clear
6:55 PM 71.6 °F - 51.8 °F 50% 29.80 in 10.0 mi SSE 8.1 mph - N/A   Clear
7:15 PM 71.6 °F - 51.8 °F 50% 29.80 in 10.0 mi SSE 8.1 mph - N/A   Clear
7:35 PM 69.8 °F - 51.8 °F 53% 29.80 in 10.0 mi SE 5.8 mph - N/A   Clear
7:55 PM 69.8 °F - 51.8 °F 53% 29.81 in 10.0 mi SSE 5.8 mph - N/A   Clear
8:15 PM 68.0 °F - 53.6 °F 60% 29.81 in 10.0 mi SSE 5.8 mph - N/A   Clear
8:35 PM 66.2 °F - 53.6 °F 64% 29.81 in 10.0 mi SE 5.8 mph - N/A   Clear
8:55 PM 64.4 °F - 53.6 °F 68% 29.81 in 10.0 mi SE 5.8 mph - N/A   Clear
9:15 PM 64.4 °F - 53.6 °F 68% 29.82 in 10.0 mi SE 5.8 mph - N/A   Clear
9:55 PM 62.6 °F - 53.6 °F 72% 29.82 in 10.0 mi SE 5.8 mph - N/A   Clear
10:15 PM 62.6 °F - 53.6 °F 72% 29.82 in 10.0 mi ESE 4.6 mph - N/A   Clear
10:35 PM 60.8 °F - 53.6 °F 77% 29.82 in 10.0 mi ESE 5.8 mph - N/A   Clear
10:55 PM 60.8 °F - 51.8 °F 72% 29.82 in 10.0 mi SE 4.6 mph - N/A   Clear
11:15 PM 60.8 °F - 51.8 °F 72% 29.82 in 10.0 mi SE 3.5 mph - N/A   Clear
11:35 PM 60.8 °F - 51.8 °F 72% 29.82 in 10.0 mi SE 3.5 mph - N/A   Clear
11:55 PM 59.0 °F - 51.8 °F 77% 29.82 in 10.0 mi SE 3.5 mph - N/A   Clear